Jaap Van Rijn

Jaap Van Rijn

Statistiques 2026

  • Courses courues : 96
  • Nb de victoires : 24
  • Nb de places : 52
  • Écart gagnant : 8
  • Réussite à la gagne : 25%
  • Réussite à la place : 54%
Musique : 0a 4a 4a 8a 5a 0a 0a 7a 1a Da 3a 2a 1a Da 1a 3a 3a Da
DateRangCatégorieAlloc.Dist.HippodromeChevalRed. KmSpé.
06/12/25 4 Trot 59 000€ 2 100m Vincennes Carloforte Font 1'11"7 Attelé lire

Après avoir évolué sur une troisième ligne, a conclu fort honorablement.

03/10/25 5 Trot 20 000€ 1 680m Ger-Hamburg Carloforte Font 1'12"3 Attelé
12/12/25 3 Trot 2 200€ 2 100m Hol-Wolvega Corsa's Titan 1'15"1 Attelé
12/12/25 1 Trot 11 000€ 1 609m Hol-Wolvega Gurion Font 1'13"2 Attelé
12/12/25 D Trot 3 300€ 2 100m Hol-Wolvega Pantani Starlake Attelé
12/12/25 5 Trot 2 200€ 2 100m Hol-Wolvega Max Ter Sype 1'14"6 Attelé
14/09/25 A Trot 20 000€ 2 650m GER-MUNICH DAGLFLING Days Of Thunder Attelé
04/10/25 7 Trot 11 280€ 2 100m Hol-Wolvega Nirvana Fashion 1'15"3 Attelé
12/10/25 D Trot 1 100€ 2 060m HOL-ALKMAAR Popping Renka Attelé
20/12/25 3 Trot 3 300€ 2 100m Hol-Wolvega Money Maker Br 1'16"1 Attelé
20/12/25 1 Trot 11 000€ 2 600m Hol-Wolvega Modric Renka 1'13"8 Attelé
20/12/25 6 Trot 3 300€ 2 100m Hol-Wolvega Popping Renka 1'16"0 Attelé
20/12/25 7 Trot 18 700€ 2 100m Hol-Wolvega Rover Hazelaar 1'18"8 Attelé
20/12/25 2 Trot 18 700€ 2 100m Hol-Wolvega Riverside Diamond 1'15"6 Attelé
22/08/25 6 Trot 15 000€ 2 520m Ger-Gelsenkirchen Madeleine Flevo Attelé
19/10/25 3 Trot 3 000€ 2 020m Ger-Gelsenkirchen Live On 1'16"6 Attelé
21/12/25 1 Trot 6 000€ 1 900m Ger-Gelsenkirchen Ove Schermer 1'12"0 Attelé
21/12/25 1 Trot 2 500€ 1 900m Ger-Gelsenkirchen Bailando 1'14"8 Attelé
21/12/25 1 Trot 20 000€ 2 520m Ger-Gelsenkirchen Force Of Nature 1'14"6 Attelé
24/12/25 0 Trot 68 000€ 2 700m Vincennes Carloforte Font Attelé lire

Très vite à la pointe du combat, a nettement marqué le pas dans le dernier tournant.

24/12/25 2 Trot 40 000€ 2 700m Vincennes Marley 1'15"7 Attelé
10/08/25 1 Trot 20 000€ 1 900m Ger-Gelsenkirchen Utkieker 1'12"0 Attelé
26/12/25 D Trot 40 000€ 2 700m Vincennes Mareno Bello Attelé
31/12/25 1 Trot 2 200€ 2 100m Hol-Wolvega Pam Beuckenswijk 1'16"8 Attelé
31/12/25 1 Trot 2 200€ 2 100m Hol-Wolvega Fabiofelix Font 1'14"5 Attelé
31/12/25 5 Trot 2 200€ 2 600m Hol-Wolvega Popping Renka 1'18"2 Attelé
31/12/25 6 Trot 10 000€ 2 600m Hol-Wolvega Floris Van Egmont Tf 1'16"3 Attelé
31/12/25 2 Trot 4 400€ 2 620m Hol-Wolvega Liberto Attelé
31/12/25 1 Trot 5 000€ 2 100m Hol-Wolvega Lincoln Renka 1'14"8 Attelé
31/12/25 2 Trot 4 400€ 2 100m Hol-Wolvega Olympus Lobell Attelé
01/01/26 1 Trot 2 500€ 2 000m Ger-Gelsenkirchen Villeneuf 1'16"3 Attelé
01/01/26 D Trot 10 000€ 2 000m Ger-Gelsenkirchen Keep Dancing Hero Attelé
01/01/26 11 Trot 5 000€ 2 000m Ger-Gelsenkirchen Lochran F. Boko 1'17"5 Attelé
01/01/26 2 Trot 5 000€ 2 000m Ger-Gelsenkirchen Utkieker 1'15"7 Attelé
04/01/26 Dist Trot 46 000€ 2 700m Vincennes Force Of Nature Attelé lire

Rapidement en bonne position, a bien lutté tout au long de la phase finale , a perdu après enquête le bénéfice de la quatrième place.

05/01/26 5 Trot 41 000€ 2 100m Vincennes Modric Renka 1'12"0 Attelé lire

Longtemps au sein du peloton, en troisième épaisseur le nez au vent, est venu faire illusion à la distance, ne plafonnant que pour finir.

11/01/26 6 Trot 40 000€ 2 100m Vincennes Mareno Bello 1'13"7 Attelé
03/10/25 2 Trot 10 000€ 2 720m Ger-Hamburg Falstaff Font 1'14"6 Attelé
22/01/26 1 Trot 40 000€ 2 700m Vincennes Gurion Font 1'14"3 Attelé
24/01/26 2 Trot 5 000€ 3 100m Hol-Wolvega Love Supreme 1'17"7 Attelé
24/01/26 2 Trot 3 300€ 2 100m Hol-Wolvega Marshall V.S. 1'16"0 Attelé
24/01/26 D Trot 4 400€ 2 100m Hol-Wolvega Liberto Attelé
24/01/26 3 Trot 11 000€ 2 600m Hol-Wolvega Modric Renka 1'14"8 Attelé
24/01/26 1 Trot 3 300€ 2 100m Hol-Wolvega Oakley Vrijthout 1'15"3 Attelé
24/01/26 D Trot 2 200€ 2 100m Hol-Wolvega Otto Beuckenswijk Attelé
24/01/26 2 Trot 2 200€ 2 100m Hol-Wolvega Jacky Barosso 1'16"0 Attelé
24/01/26 2 Trot 3 000€ 2 600m Hol-Wolvega Merginio 1'18"9 Attelé
02/07/25 2 Trot 14 000€ 2 200m Ger-Hamburg Pebbles Newport 1'15"3 Attelé
02/07/25 3 Trot 2 000€ 2 200m Ger-Hamburg Howings Elly 1'19"1 Attelé
13/07/25 6 Trot 2 500€ 1 900m Ger-Gelsenkirchen Xandor 1'18"2 Attelé